This demonstration page uses our WeatherBlox Daily Observations layout. Learn more.

Hourly Observations for February 24, 2020

Temp ( °F °C ) Dew Point ( °F °C ) Humidity (%) Winds ( mph kmh ) Pressure ( in mb ) Visibility ( mi km ) Precip ( " mm )
12:15 am 00:15 Cloudy 36 2 28 -2.5 72 72 NNE 9 15 29.98 1015 10 16.0934 0 0
12:35 am 00:35 Cloudy 35 1.8 27 -2.6 73 73 NNE 7 11 29.98 1015 10 16.0934 0 0
12:55 am 00:55 Cloudy 35 1.6 28 -2.5 74 74 NNE 8 13 29.98 1015 10 16.0934 0 0
1:15 am 01:15 Cloudy 34 1.1 27 -2.7 76 76 N 7 11 29.98 1015 10 16.0934 0 0
1:35 am 01:35 Cloudy 34 1.1 28 -2.5 77 77 N 8 13 29.98 1015 10 16.0934 0 0
1:55 am 01:55 Cloudy 34 1 27 -2.8 76 76 N 8 13 29.99 1015 10 16.0934 0 0
2:15 am 02:15 Mostly Cloudy 33 0.7 27 -3 77 77 N 7 11 29.98 1015 10 16.0934 0 0
2:35 am 02:35 Partly Cloudy 33 0.5 26 -3.1 77 77 N 7 11 29.97 1015 10 16.0934 0 0
2:55 am 02:55 Partly Cloudy 33 0.3 26 -3.1 78 78 N 6 9 29.96 1015 10 16.0934 0 0
3:15 am 03:15 Mostly Cloudy 33 0.3 26 -3.1 78 78 N 6 9 29.95 1014 10 16.0934 0 0
3:35 am 03:35 Cloudy 32 0.1 26 -3.1 79 79 NNE 5 7 29.94 1014 10 16.0934 0 0
3:55 am 03:55 Mostly Cloudy 32 0 26 -3.1 80 80 N 7 11 29.93 1014 10 16.0934 0 0
4:15 am 04:15 Partly Cloudy 32 -0.2 26 -3.4 79 79 N 6 9 29.94 1014 10 16.0934 0 0
4:35 am 04:35 Partly Cloudy 31 -0.5 26 -3.3 82 82 NNW 8 13 29.95 1014 10 16.0934 0 0
4:55 am 04:55 Partly Cloudy 31 -0.7 26 -3.4 82 82 N 9 15 29.95 1014 10 16.0934 0 0
5:15 am 05:15 Clear 30 -1 26 -3.5 83 83 N 6 9 29.95 1014 10 16.0934 0 0
5:35 am 05:35 Clear 28 -2.5 24 -4.3 88 88 N 7 11 29.98 1015 10 16.0934 0 0
5:55 am 05:55 Clear 27 -2.9 24 -4.6 88 88 N 7 11 29.98 1015 10 16.0934 0 0
6:15 am 06:15 Clear 27 -3 24 -4.3 91 91 NNE 6 9 29.97 1015 10 16.0934 0 0
6:35 am 06:35 Clear 27 -2.6 25 -4 90 90 N 5 7 29.97 1015 10 16.0934 0 0
6:55 am 06:55 Clear 26 -3.6 23 -5 90 90 N 3 6 29.99 1016 10 16.0934 0 0
7:15 am 07:15 Clear 26 -3.3 24 -4.5 92 92 N 7 11 29.99 1015 10 16.0934 0 0
7:35 am 07:35 Sunny 26 -3.5 23 -4.8 91 91 NNW 3 6 29.99 1016 10 16.0934 0 0
7:55 am 07:55 Sunny 25 -3.7 23 -4.8 92 92 Calm 29.98 1015 10 16.0934 0 0
8:15 am 08:15 Sunny 27 -2.9 25 -3.9 93 93 Calm 29.98 1015 10 16.0934 0 0
8:35 am 08:35 Sunny 29 -1.6 26 -3.1 90 90 Calm 29.97 1015 10 16.0934 0 0
8:55 am 08:55 Sunny 30 -1 27 -3 86 86 NNW 5 7 29.96 1015 10 16.0934 0 0
9:15 am 09:15 Sunny 31 -0.4 27 -2.8 84 84 N 6 9 29.96 1014 10 16.0934 0 0
9:35 am 09:35 Sunny 32 0.2 27 -2.7 81 81 NE 6 9 29.95 1014 10 16.0934 0 0
9:55 am 09:55 Partly Cloudy 34 1.2 27 -3 74 74 NE 6 9 29.93 1014 10 16.0934 0 0
10:15 am 10:15 Sunny 36 2.4 25 -3.8 64 64 NNE 3 6 29.93 1014 10 16.0934 0 0
10:35 am 10:35 Sunny 38 3.3 25 -3.7 60 60 NE 5 7 29.91 1013 10 16.0934 0 0
10:55 am 10:55 Sunny 39 4.1 24 -4.4 54 54 ENE 6 9 29.9 1012 10 16.0934 0 0
11:15 am 11:15 Sunny 42 5.3 23 -4.8 48 48 E 6 9 29.87 1012 10 16.0934 0 0
11:35 am 11:35 Sunny 43 6.3 24 -4.7 46 46 E 6 9 29.87 1011 10 16.0934 0 0
11:55 am 11:55 Sunny 45 7.2 24 -4.6 43 43 E 3 6 29.86 1011 10 16.0934 0 0
12:15 pm 12:15 Sunny 46 7.6 25 -4 44 44 Calm 29.85 1011 10 16.0934 0 0
12:35 pm 12:35 Sunny 48 8.7 25 -3.8 41 41 Calm 29.84 1011 10 16.0934 0 0
12:55 pm 12:55 Partly Cloudy 48 8.8 25 -3.7 41 41 Calm 29.82 1010 10 16.0934 0 0
1:15 pm 13:15 Mostly Cloudy 48 9 25 -3.9 40 40 Calm 29.81 1010 10 16.0934 0 0
1:35 pm 13:35 Mostly Cloudy 49 9.5 25 -3.7 40 40 Calm 29.8 1009 10 16.0934 0 0
1:55 pm 13:55 Partly Cloudy 49 9.6 25 -4.1 38 38 Calm 29.8 1009 10 16.0934 0 0
2:15 pm 14:15 Sunny 51 10.6 25 -3.9 36 36 Calm 29.79 1009 10 16.0934 0 0
2:35 pm 14:35 Partly Cloudy 50 10.2 25 -3.7 38 38 Calm 29.79 1009 10 16.0934 0 0
2:55 pm 14:55 Mostly Cloudy 52 11 26 -3.3 37 37 WNW 5 7 29.77 1008 10 16.0934 0 0
3:15 pm 15:15 Cloudy 51 10.6 26 -3.5 37 37 Calm 29.78 1008 10 16.0934 0 0
3:35 pm 15:35 Cloudy 51 10.6 26 -3.3 38 38 SW 3 6 29.78 1008 10 16.0934 0 0
3:55 pm 15:55 Cloudy 51 10.3 26 -3.2 39 39 Calm 29.79 1009 10 16.0934 0 0
4:15 pm 16:15 Cloudy 50 10.2 26 -3.2 39 39 WNW 3 6 29.79 1009 10 16.0934 0 0
4:35 pm 16:35 Cloudy 50 10 28 -2.1 43 43 W 5 7 29.8 1009 10 16.0934 0 0
4:55 pm 16:55 Cloudy 50 9.8 28 -2.2 43 43 Calm 29.79 1009 10 16.0934 0 0
5:15 pm 17:15 Cloudy 49 9.7 28 -2 44 44 Calm 29.81 1009 10 16.0934 0 0
5:35 pm 17:35 Cloudy 49 9.5 29 -1.5 47 47 Calm 29.82 1010 10 16.0934 0 0
5:55 pm 17:55 Cloudy 48 9 31 -0.7 51 51 W 7 11 29.83 1010 10 16.0934 0 0
6:15 pm 18:15 Cloudy 47 8.6 32 0 55 55 Calm 29.83 1010 10 16.0934 0 0
6:35 pm 18:35 Cloudy 45 7.3 25 -4 45 45 E 7 11 29.85 1011 10 16.0934 0 0
6:55 pm 18:55 Cloudy 45 7 25 -4.1 45 45 SE 7 11 29.86 1011 10 16.0934 0 0
7:15 pm 19:15 Cloudy 45 7 23 -5.1 42 42 ESE 10 17 29.86 1011 10 16.0934 0 0
7:35 pm 19:35 Cloudy 43 5.9 23 -4.9 46 46 ESE 9 15 29.87 1011 10 16.0934 0 0
7:55 pm 19:55 Cloudy 42 5.6 21 -6.1 43 43 ESE 9 15 29.88 1012 10 16.0934 0 0
8:15 pm 20:15 Cloudy 41 5 21 -6 45 45 ESE 10 17 29.88 1012 10 16.0934 0 0
8:35 pm 20:35 Cloudy 39 4.1 21 -6 48 48 ESE 10 17 29.9 1012 10 16.0934 0 0
8:55 pm 20:55 Cloudy 39 4 20 -6.7 46 46 ESE 12 19 29.91 1013 10 16.0934 0 0
9:15 pm 21:15 Cloudy 38 3.6 20 -6.6 48 48 ESE 10 17 29.91 1013 10 16.0934 0 0
9:35 pm 21:35 Cloudy 39 3.7 19 -7.3 45 45 SE 8 13 29.93 1014 10 16.0934 0 0
9:55 pm 21:55 Cloudy with Light Snow 37 3 21 -6 52 52 SSE 5 7 29.96 1014 10 16.0934 0 0
10:15 pm 22:15 Cloudy 37 2.5 21 -5.9 54 54 E 8 13 29.95 1014 10 16.0934 0 0
10:35 pm 22:35 Cloudy 37 2.6 20 -6.8 50 50 E 9 15 29.95 1014 10 16.0934 0 0
10:55 pm 22:55 Cloudy 37 2.5 20 -6.6 51 51 E 7 11 29.95 1014 10 16.0934 0 0
11:15 pm 23:15 Cloudy 36 2.1 21 -6.3 54 54 ENE 3 6 29.97 1015 10 16.0934 0 0
11:35 pm 23:35 Cloudy 35 1.6 22 -5.6 59 59 NE 9 15 29.98 1015 10 16.0934 0 0
11:55 pm 23:55 Cloudy 35 1.5 22 -5.3 61 61 NNE 5 7 29.98 1015 10 16.0934 0 0

Powered by AerisWeather